sat.trackr.live / text

‹ back to catalog

STARLINK-30923

NORAD 58381 · 2023-178H

PAYLOAD ACTIVE UNKNOWN

§ Identity

Operator
Country
US
Launch date
2023-11-20
Launch site
AFWTR
Launch vehicle
Mass (kg)
RCS (m²)

Purposes: comms

External: N2YO · Heavens-Above · Gunter

§ Orbital elements

Epoch: 2026-05-24T23:03:31.165632Z

Period
93.91 min
Inclination
53.1618°
Eccentricity
0.0001218
Mean motion
15.33325596 rev/d
Perigee alt
465.1 km
Apogee alt
466.7 km
Semi-major
6,844.0 km
B*
8.0437e-4
RAAN
6.4235°
Arg perigee
123.0711°
Mean anomaly
237.0408°
Rev number
14,150

§ Raw data

STARLINK-309231 58381U 23178H   26144.96077738  .00025987  00000+0  80437-3 0  99952 58381  53.1618   6.4235 0001218 123.0711 237.0408 15.33325596141505

JSON: /api/v1/satellites/58381 · /tle

For live sub-satellite position, see the globe view (requires WebGL).

§ Visibility from observer

Set your observer location to see the next 7 days of passes ≥ 10°. The values pass through the URL so the page stays shareable.

No JS? Fill the form by hand. The geolocation button needs JavaScript.